Location: ?�ng Di
(16.3167°N, 107.7833°E)
Time: 14:51:11
(UTC+00:00)

Daily predictions for brighter satellites

Satellite Brightness Start Highest point End
(mag) Time Altitude Azimuth Time Altitude Azimuth Time Altitude Azimuth
S3M 4.0 12:01:27 10° N 12:07:50 77° E 12:14:12 10° S
Cosmos 2263 Rocket 4.1 12:08:23 10° NE 12:09:43 11° ENE 12:11:03 10° E
DELTA 2 R/B (1) 3.5 12:04:16 10° SW 12:09:48 78° SE 12:15:22 10° NE
SJ-11-01 4.2 12:08:29 10° SSE 12:13:06 67° ENE 12:17:43 10° N
SL-16 R/B 2.5 12:12:37 10° SSW 12:18:15 74° WNW 12:23:54 10° NNE
HJ-1C 3.5 12:15:21 10° S 12:18:38 73° W 12:21:56 10° NNW
CZ-2C R/B 3.3 12:14:08 10° SSE 12:19:56 75° ENE 12:25:36 10° N
ARGOS 3.5 12:15:05 10° SSE 12:20:09 47° ENE 12:25:20 10° N
Cosmos 1818 3.5 12:15:30 10° SSW 12:20:48 62° ESE 12:26:08 10° NNE
USA 215 3.3 12:15:58 10° NE 12:22:20 55° SE 12:28:40 10° SSW
CZ-2C R/B 4.1 12:19:22 10° NNE 12:23:55 45° E 12:28:26 10° S
Meteor 2-14 Rocket 4.5 12:18:38 10° S 12:24:39 59° E 12:30:40 10° NNE
Meteor 2-21 4.4 12:19:10 10° S 12:25:18 67° E 12:31:26 10° NNE
Centaur D-1A AC-32 3.3 12:15:44 10° WNW 12:25:27 50° SW 12:27:59 20° SE
Cosmos 1726 Rocket 3.8 12:21:21 10° N 12:25:39 47° E 12:28:45 18° SSE
GPS 2-15 Rocket1 3.7 12:21:20 10° WNW 12:26:11 58° N 12:30:10 15° E
Cosmos 883 Rocket 4.5 12:23:50 10° N 12:30:02 68° E 12:36:18 10° SSE
ATLAS 5 CENTAUR R/B 1.2 12:29:31 10° SSW 12:33:30 88° ESE 12:37:32 10° NNE
SL-08 RB Rocket 4.0 12:31:59 24° SE 12:34:17 44° ENE 12:38:31 10° N
CZ-2C R/B 2.5 12:30:50 10° NNE 12:36:08 83° ESE 12:41:20 10° S
Cosmos 858 Rocket 4.4 12:31:07 10° N 12:36:22 77° ENE 12:40:10 19° SSE
GPS 2-18 Rocket1 3.0 12:33:04 10° W 12:36:43 76° NNW 12:38:41 25° ENE
Resurs 01 Rocket 3.8 12:37:51 10° ENE 12:37:51 10° ENE 12:38:11 10° ENE
Cosmos 1626 3.7 12:34:09 10° SSW 12:37:33 35° W 12:40:57 10° NNW
Cosmos 1244 Rocket 4.4 12:32:52 10° S 12:38:58 73° E 12:45:04 10° N
Intelsat 5-2 Rocket 2.6 12:39:11 10° WNW 12:41:46 41° NNE 12:42:10 37° NE
BREEZE-M DEB (TANK) 4.3 12:41:08 10° NNW 12:46:09 26° NE 12:47:41 21° ENE
Hubble Space Telescope 0.9 12:42:13 10° SW 12:46:12 49° SSE 12:46:54 44° ESE
Cosmos 1898 Rocket 4.2 12:42:19 10° NNW 12:47:20 51° WSW 12:52:08 11° S
GEOS 3 Rocket 3.6 12:43:05 10° NNE 12:48:28 89° ESE 12:53:47 10° SSW
Ariane Rocket 3.0 12:48:39 21° SSE 12:52:08 87° W 12:57:14 10° NNW
IRS-1A Rocket 4.2 12:51:14 21° SSE 12:55:02 89° WSW 13:00:32 10° NNW
Meteor 1-21 Rocket 4.4 12:54:34 27° SSE 12:57:33 55° E 13:03:18 10° NNE
NOSS 3-1 (C) 4.2 12:50:13 10° NNW 12:58:42 76° ENE 13:03:45 30° SE
Palapa B4 Rocket 4.2 12:50:38 10° WSW 12:59:23 58° SSE 13:01:28 39° ESE
Cosmos 2058 Rocket 2.9 12:56:17 10° N 13:00:46 83° E 13:01:59 48° SSE
Cosmos 1626 Rocket 3.7 12:59:00 19° SSW 13:02:07 74° W 13:06:33 10° N
MOS 1 4.2 13:01:16 29° SSE 13:04:21 88° WSW 13:10:01 10° NNW
H-2A R/B 3.4 12:59:38 10° SSW 13:04:37 39° W 13:09:39 10° NNW
EXPRESS MD2 4.2 13:01:10 10° NNW 13:05:16 68° NE 13:07:28 42° ESE
Cosmos 2322 Rocket 4.1 13:00:58 10° SW 13:05:47 29° WNW 13:10:36 10° N
Intelsat 5-1 Rocket 3.4 13:07:52 10° W 13:10:20 20° SW 13:10:20 20° SW
USA 186 3.7 13:09:58 23° SW 13:11:00 28° W 13:13:55 10° NW
SPOT 3 Rocket 3.6 13:11:50 54° E 13:12:14 55° ENE 13:17:18 10° N
Timation 1 Rocket 4.3 13:06:39 10° NNW 13:12:36 84° WSW 13:14:43 43° S
Resurs 1-3 3.9 13:13:32 50° NE 13:13:32 50° NE 13:17:16 10° N
USA 229 DEB 3.9 13:05:35 10° NNW 13:13:11 82° ENE 13:16:15 41° SSE
USA 229 3.9 13:05:40 10° NNW 13:13:16 81° ENE 13:16:19 41° SSE
NOSS 3-3 (A) 3.6 13:12:42 33° S 13:15:08 65° ESE 13:20:53 10° NNE
NOSS 3-3 (C) 3.6 13:13:23 41° S 13:15:15 64° ESE 13:21:00 10° NNE
BREEZE M DEB (TANK) 3.8 13:20:06 29° NNE 13:20:06 29° NNE 13:23:14 10° NE
NOSS 3-1 (A) 4.2 13:15:19 10° NNW 13:23:46 71° ENE 13:26:40 47° SE
COSMOS 2428 4.2 13:27:57 22° NE 13:27:57 22° NE 13:30:04 10° NE
CZ-3A R/B 3.5 13:08:14 10° SW 13:25:35 42° S 13:26:03 42° SSE
Cosmos 2298 Rocket 3.9 13:21:00 10° N 13:26:15 74° ENE 13:26:15 74° ENE
Cosmos 2322 3.6 13:26:59 43° SSW 13:28:57 88° WNW 13:34:41 10° NNE
Milstar 3 Cent rocket 2.6 13:27:50 10° WNW 13:32:37 53° SSW 13:32:54 53° SSW
Cosmos 2285 Rocket 4.3 13:27:42 10° NNW 13:33:53 63° WSW 13:35:43 44° SSW
Cosmos 2333 4.3 13:39:19 49° SW 13:40:46 69° WNW 13:46:22 10° N
Cosmos 2219 Rocket 3.1 13:44:18 37° NNE 13:44:18 37° NNE 13:47:38 10° NNE
Nadezhda 1 Rocket 4.3 13:37:11 10° N 13:42:27 52° NE 13:42:27 52° NE
Cosmos 2360 Rocket 4.1 13:39:11 10° SW 13:43:51 27° WNW 13:48:32 10° NNW
Atlas Centaur 2 4.4 13:39:19 10° NW 13:43:56 22° N 13:48:32 12° NE
Cosmos 2333 Rocket 2.6 13:51:56 55° N 13:51:56 55° N 13:56:21 10° NNE
Cosmos 2263 Rocket 2.6 13:48:18 10° NNW 13:53:24 54° W 13:53:24 54° W
Resurs 01 Rocket 3.9 14:15:25 22° NW 14:15:25 22° NW 14:17:17 10° NNW
H-2A ROCKET BODY 4.5 14:54:54 10° WNW 15:02:42 71° NNE 16:00:12 10° ESE
CZ-4C R/B 4.2 18:22:59 10° N 18:30:20 38° ENE 18:30:20 38° ENE
ADEOS II 4.5 18:57:13 10° NNE 18:58:26 17° NNE 18:58:26 17° NNE
COSMOS 2406 4.5 19:29:33 36° NNE 19:29:33 36° NNE 19:32:50 10° NNE
Hubble Space Telescope 3.8 19:36:10 12° ENE 19:36:10 12° ENE 19:36:36 10° E
Cosmos 2082 Rocket 3.1 19:44:08 43° E 19:44:08 43° E 19:49:11 10° NNE
Meteor 1-11 Rocket 4.2 19:52:31 56° N 19:52:31 56° N 19:56:49 10° N
IDEFIX/ARIANE 42P 3.3 19:48:02 10° NNE 19:51:43 48° NNE 19:51:43 48° NNE
Cosmos 2233 Rocket 4.0 19:54:03 76° NNE 19:54:03 76° NNE 19:59:43 10° N
Cosmos 676 Rocket 4.5 20:00:52 55° N 20:00:52 55° N 20:04:53 10° NNE
CZ-3B R/B 3.1 20:00:48 61° WSW 20:02:34 87° SSE 20:07:15 10° ENE
Cosmos 1833 Rocket 3.2 20:07:02 46° NNW 20:07:02 46° NNW 20:11:20 10° N
ARIANE 5 R/B 4.3 20:01:41 10° NNW 20:03:43 21° NNW 20:03:43 21° NNW
Cosmos 2221 Rocket 4.0 20:10:05 10° N 20:14:02 58° ENE 20:14:02 58° ENE
CZ-4C R/B 4.2 20:11:31 10° NW 20:15:18 26° WNW 20:15:18 26° WNW
Cosmos 1900 4.2 20:21:58 80° NNW 20:21:58 80° NNW 20:26:38 10° NNE
Tsikada Rocket 3.9 20:16:18 10° N 20:22:43 82° W 20:25:05 42° S
COSMOS 2441 4.4 20:30:31 10° N 20:35:09 55° WNW 20:35:09 55° WNW
H-2A R/B 2.1 20:34:35 43° SSE 20:36:04 85° ENE 20:40:32 10° N
deb Chang Zheng 4 3.4 20:33:35 10° NNE 20:37:50 84° ESE 20:38:33 61° S
CZ-3 R/B 4.2 19:44:24 10° WNW 20:38:17 78° NNE 20:49:13 10° ESE
MSX 4.2 20:38:27 10° N 20:43:46 41° WNW 20:44:40 39° W
CZ-3A R/B 2.6 20:43:53 26° NW 20:45:45 53° NNE 20:55:52 10° E
Cosmos 1464 Rocket 4.0 20:44:07 19° S 20:48:49 89° E 20:55:13 10° N
NATO 3D Rocket 4.4 20:45:06 21° WNW 20:49:40 53° N 20:54:50 10° ENE
CZ-4B R/B 4.0 20:48:19 10° SE 20:50:59 22° ENE 20:53:41 10° NNE
GPS 2-14 Rocket1 3.0 20:51:59 42° WNW 20:53:07 61° N 20:57:15 10° ENE
CENTAUR R/B 4.4 20:50:08 10° SSE 20:53:47 19° ESE 20:57:40 10° ENE
Ariane H10+ 4.3 20:51:30 30° SSW 20:53:55 43° SSE 21:19:19 10° E
Cosmos 2034 Rocket 4.3 20:47:59 10° S 20:54:05 65° E 21:00:09 10° NNE
Cosmos 1544 3.3 20:52:58 32° SSE 20:54:28 66° E 20:58:01 10° N
Cosmos 1743 3.0 20:55:04 46° WNW 20:55:04 46° WNW 20:58:36 10° N
SWAS 4.4 20:55:26 46° SW 20:56:26 62° WNW 21:00:39 10° N
Cosmos 1656 3.8 20:53:04 10° NNW 20:58:29 72° ENE 21:03:56 10° SSE
Meteor 1-23 Rocket 4.3 20:54:31 10° N 21:00:16 86° E 21:06:04 10° S
PSLV R/B 4.3 20:59:24 10° NNW 21:03:17 34° WNW 21:03:59 32° W
SAR-Lupe-4 4.4 21:01:46 10° SSE 21:05:13 52° ENE 21:08:42 10° N
Landsat 5 3.8 21:05:43 31° SW 21:07:03 41° W 21:10:54 10° NNW
GPS 2-12 Rocket1 3.2 21:04:48 21° WNW 21:07:45 68° N 21:12:11 10° E
DELTA 2 R/B (1) 3.9 21:03:00 10° NW 21:08:35 70° NE 21:14:09 10° ESE
Cosmos 1484 Rocket 3.5 21:05:39 10° NNE 21:09:24 51° E 21:13:04 10° S
Cosmos 1378 Rocket 3.5 21:06:55 10° N 21:11:18 85° W 21:15:44 10° S
NOSS 3-2 (C) 4.5 21:07:30 10° S 21:12:23 36° ESE 21:17:29 10° NE
Hubble Space Telescope 0.7 21:11:34 21° WNW 21:14:12 64° SSW 21:18:18 10° SE
Cosmos 1782 Rocket 3.6 21:14:24 16° SSW 21:17:52 61° W 21:22:16 10° N
ERS-2 4.0 21:22:04 15° WNW 21:22:04 15° WNW 21:23:23 10° WNW
CZ-4B R/B 3.9 21:17:07 10° NNE 21:21:17 86° ESE 21:25:13 10° S
CZ-2C R/B 3.2 21:18:06 10° NNW 21:22:11 29° WNW 21:24:31 19° WSW
SAR-Lupe-1 4.0 21:18:59 10° SSE 21:22:31 89° WSW 21:26:05 10° NNW
Palapa B4 Rocket 4.5 21:20:06 21° WSW 21:22:40 33° SSW 21:29:01 10° SE
SWIFT 3.2 21:22:29 11° WNW 21:26:26 47° N 21:30:34 10° ENE
Cosmos 2082 Rocket 3.9 21:26:01 13° W 21:27:51 15° WNW 21:31:00 10° NW
NOSS 3-2 (A) 3.1 21:25:34 14° SSW 21:30:18 72° WNW 21:35:59 10° NNE
Cosmos 1674 Rocket 4.3 21:27:02 10° NNW 21:30:50 30° W 21:34:37 10° SSW
Cosmos 921 Rocket 2.9 21:30:23 10° NNW 21:34:45 84° WSW 21:39:01 10° S
Cosmos 1689 Rocket 3.5 21:32:43 10° SSE 21:35:32 41° ENE 21:38:22 10° N
Cosmos 1842 4.3 21:33:01 10° N 21:36:50 48° E 21:40:38 10° SSE
Meteor 1-12 Rocket 4.5 21:37:14 10° S 21:42:50 75° E 21:48:28 10° N
Cosmos 1697 Rocket 2.6 21:41:32 10° NNW 21:47:07 75° WSW 21:52:41 10° S
Okean 2 3.3 21:43:05 10° N 21:47:10 84° W 21:51:13 10° S
H-2A R/B 2.9 21:44:03 10° NNE 21:48:19 67° ESE 21:52:23 10° S
Okean 2 Rocket 3.0 21:45:38 10° S 21:50:01 74° W 21:54:24 10° N
Delta 198 3.4 21:45:34 10° WNW 21:50:10 81° NNE 21:54:06 10° ESE
Cosmos 1975 4.3 21:47:42 10° SW 21:50:32 19° W 21:53:23 10° NW
Spot 2 4.4 21:46:01 10° N 21:50:49 67° WNW 21:55:51 10° SSW
Cosmos 1867 3.6 21:46:18 10° SSW 21:51:40 66° WNW 21:57:03 10° NNE
SL-27 R/B 3.2 21:48:44 10° SW 21:52:03 35° WNW 21:55:21 10° N
METEOR-M 4.2 21:47:23 10° N 21:52:38 62° WNW 21:57:53 10° SSW
ATLAS 2A CENTAUR R/B 3.3 21:52:29 10° WNW 21:55:36 34° N 22:04:53 10° ENE
Cosmos 1763 Rocket 4.5 21:53:38 10° N 21:58:47 54° ENE 22:03:57 10° SSE
SJ-12 4.0 21:55:20 10° N 21:59:22 57° WNW 22:03:21 10° SSW
ALOS 2.9 21:55:13 10° N 21:59:31 38° WNW 22:03:50 10° SW
H-2A R/B 4.5 22:02:38 10° WNW 22:43:07 38° SW 22:48:59 10° SSE
